Probability
38 36 37 38 34 33 35 34 31 30 28 26 24 22 18 15 15 14 16 21 27 29 27 27 24 19 15 12 12 16 21 23 20 17 18 19 17 17 17 16 16 16 15
38 38 39 37 34 32 33 33 30 27 26 25 24 24 21 17 14 14 15 18 24 27 28 27 25 20 16 14 14 16 19 21 19 16 16 18 17 16 16 16 16 16 14
39 39 39 36 31 29 30 30 28 24 22 22 23 24 23 19 16 15 15 15 17 21 25 27 26 22 19 17 16 17 18 19 18 15 12 14 16 16 14 14 15 15 13
37 38 37 33 28 26 26 26 24 21 20 19 20 20 20 19 18 16 16 14 13 15 21 25 25 23 21 19 18 17 17 17 16 14 10 10 13 15 13 12 13 14 15
33 33 33 30 27 25 24 23 21 20 18 18 17 16 16 18 17 16 15 13 13 15 18 21 22 22 21 19 17 16 16 15 15 14 10 8 11 12 11 11 11 15 16
30 29 29 28 27 25 24 22 22 20 18 17 15 12 13 15 15 15 13 12 14 16 16 17 18 18 18 17 14 14 14 15 15 13 11 10 10 9 9 10 11 13 15
27 27 27 27 26 24 23 23 21 18 16 16 14 10 10 13 13 13 12 12 13 14 14 14 15 16 15 14 12 12 14 15 15 13 12 11 10 9 9 10 11 12 12
24 25 26 25 24 23 23 22 20 15 12 13 11 8 7 10 11 10 10 11 11 13 13 13 13 13 12 10 9 10 13 15 15 14 13 12 10 9 9 10 12 12 10
22 23 22 21 21 21 22 21 18 13 10 8 6 5 5 7 8 9 9 9 8 9 10 10 9 9 9 8 7 8 11 12 13 14 14 12 10 8 7 8 11 11 10
19 20 20 18 19 20 20 18 16 13 9 5 3 3 4 4 5 6 7 6 5 5 6 5 5 6 7 7 8 8 8 8 8 11 12 12 11 10 8 8 9 9 9
15 16 18 18 18 19 17 15 14 11 8 4 3 3 4 4 4 4 4 3 3 3 3 3 3 4 6 7 8 7 5 3 4 7 9 11 13 12 10 9 8 8 7
12 14 16 17 16 14 12 11 10 9 7 5 4 4 4 4 4 3 3 2 2 2 3 3 3 4 6 6 6 5 4 2 1 3 6 9 11 11 10 9 8 7 6
13 14 16 16 13 10 8 8 7 7 7 7 6 5 4 3 3 3 3 2 1 1 3 3 3 4 6 6 4 4 4 2 1 1 3 5 7 9 9 9 8 6 5
14 15 16 14 11 8 7 7 7 7 7 7 7 6 4 2 2 2 3 2 1 1 2 3 4 5 5 5 4 4 5 3 1 0 1 2 4 6 8 7 6 5 5
13 14 14 12 10 8 7 8 7 6 7 8 7 5 3 1 0 1 1 2 2 1 1 2 3 4 4 3 3 4 5 3 1 0 0 0 1 3 4 4 3 3 2
11 10 9 8 8 7 8 8 7 7 8 8 6 4 2 1 0 0 1 3 3 1 0 1 3 4 4 3 3 5 6 4 1 0 0 0 0 1 1 1 1 1 0
9 8 7 6 6 7 8 8 7 8 8 6 4 2 1 0 0 0 2 4 4 2 1 1 2 3 3 3 4 5 6 5 2 0 0 0 0 0 0 0 0 0 0
7 7 7 7 7 8 8 8 7 7 6 5 2 1 0 0 0 0 1 2 3 2 1 0 1 1 1 3 4 5 6 5 3 1 0 0 0 0 0 0 0 0 0
5 6 8 9 9 9 9 7 6 5 6 5 3 1 0 0 0 0 0 1 1 1 0 0 0 0 1 2 3 4 5 5 3 1 0 0 0 0 0 0 0 0 0
5 6 7 8 9 9 9 7 6 5 5 4 2 1 0 0 0 0 0 1 0 0 0 0 0 0 1 2 3 3 4 4 2 0 0 0 0 0 0 0 0 0 0
6 6 6 7 7 7 6 6 5 5 4 3 1 0 0 0 0 0 0 0 0 0 0 0 1 1 1 2 2 2 3 3 2 1 0 0 0 0 0 0 0 0 0
6 6 6 6 5 4 3 3 4 5 5 4 1 0 0 0 0 0 0 0 0 0 0 0 0 0 1 1 1 1 1 1 1 1 0 0 0 0 0 0 0 0 0
6 6 6 6 5 3 1 1 2 4 5 4 2 1 0 0 0 0 0 0 0 0 0 0 1 1 0 0 0 0 0 0 0 0 0 0 0 0 0 0 0 0 0
6 6 6 6 5 3 1 0 1 3 4 3 2 2 1 1 0 0 0 0 0 0 0 0 1 1 0 0 0 0 0 0 0 0 0 0 0 0 0 0 0 0 0
4 4 5 5 4 3 1 0 1 2 3 2 2 1 1 0 0 0 0 0 0 0 0 0 1 1 0 0 0 0 0 0 0 0 0 0 0 0 0 0 0 0 0
3 4 4 3 3 2 1 0 1 2 3 1 1 1 0 0 0 0 0 0 0 0 0 0 0 0 0 0 0 0 0 0 0 0 0 0 0 0 0 0 0 0 0
Wind_Speed
2 2 1 1 2 2 2 3 4 4 4 4 5 5 4 5 4 3 3 9 9 10 10 9 9 9 10 10 9 9 9 10 10 10 9 9 9 10 10 10 10 11 11
1 1 2 1 2 2 2 2 3 3 3 3 5 5 4 5 4 4 3 5 9 10 10 10 10 10 10 10 9 9 9 9 10 10 9 8 8 9 9 10 10 11 11
1 1 2 1 2 2 2 3 3 3 4 4 4 5 4 5 4 4 4 3 5 10 12 12 12 11 10 10 9 9 9 9 9 9 9 9 8 9 9 10 10 10 11
1 1 2 1 2 2 2 3 3 3 3 4 3 4 4 3 5 5 4 4 3 4 8 12 12 12 11 11 10 10 10 10 10 10 10 10 10 10 10 10 10 10 10
2 1 2 1 2 2 3 4 2 2 3 4 4 4 4 3 4 5 4 4 4 3 4 8 13 13 13 12 12 11 11 11 11 11 11 11 11 10 11 11 11 11 11
2 2 2 2 2 2 2 2 3 3 3 4 6 5 3 4 4 4 4 4 4 4 4 5 6 9 14 14 13 13 13 13 12 12 12 13 12 12 12 13 12 12 12
2 2 3 2 2 2 3 3 3 4 3 3 3 4 4 4 4 3 3 3 4 4 4 4 4 3 5 13 14 14 13 13 13 13 13 13 12 12 12 13 14 14 13
3 3 3 2 2 2 3 4 3 3 3 2 2 2 3 3 3 4 3 4 4 3 4 5 4 4 4 3 7 14 14 13 14 14 13 12 12 12 13 14 14 14 14
3 3 3 3 2 2 3 3 3 4 3 3 2 2 2 2 2 3 4 4 3 3 3 3 5 5 6 4 4 9 12 12 13 14 13 12 12 12 13 14 15 15 15
3 3 3 3 2 2 3 3 3 3 3 3 3 3 3 2 2 2 3 3 4 4 4 4 4 4 5 4 5 7 10 10 10 11 11 11 11 12 13 13 14 15 15
3 3 3 3 2 3 3 3 2 3 3 3 3 3 3 3 4 3 4 3 3 3 4 4 4 3 4 4 4 6 8 9 9 9 10 10 10 11 12 12 13 14 15
3 3 3 2 2 2 2 2 2 3 3 4 4 3 2 2 3 3 4 3 3 3 3 3 3 3 3 3 5 7 8 9 9 9 10 10 10 10 11 12 12 13 13
2 2 2 2 2 2 2 2 2 3 3 4 3 3 3 3 3 3 3 3 3 3 3 3 3 3 3 3 3 6 7 9 10 9 10 10 10 10 10 11 11 11 12
3 3 2 2 2 3 3 2 2 3 3 3 4 4 3 4 3 3 2 3 4 3 3 3 2 3 3 3 4 6 4 8 9 9 9 10 10 10 9 9 9 9 10
3 3 3 3 3 3 3 3 2 3 3 3 4 4 4 3 3 3 2 2 3 4 4 3 2 2 2 1 4 4 3 7 8 9 9 10 10 10 10 9 9 9 8
4 4 4 3 3 3 3 2 3 3 3 3 4 4 3 3 3 2 2 3 3 3 4 3 3 2 1 2 3 3 4 8 10 9 9 10 10 10 9 9 9 9 9
4 4 4 4 3 3 3 3 4 4 4 4 4 4 3 4 3 3 2 2 2 2 4 4 3 3 3 3 2 2 4 4 5 9 10 10 10 10 10 9 9 9 9
4 4 4 4 4 3 2 3 4 4 4 4 4 4 4 4 3 3 3 3 3 3 3 5 4 3 4 3 3 3 3 4 4 7 10 11 11 11 10 10 10 9 9
4 4 4 4 3 3 3 3 4 4 4 4 4 3 3 3 4 3 4 3 3 3 2 3 4 3 3 3 2 3 3 3 5 6 9 11 12 12 11 11 10 10 9
4 4 4 3 3 4 5 5 5 5 5 4 3 3 3 3 3 4 4 3 3 3 3 3 3 3 3 3 2 2 3 3 4 4 4 6 8 10 11 11 11 11 10
4 4 4 4 3 3 5 6 6 5 5 5 4 3 3 3 4 3 3 3 3 3 3 3 2 2 2 2 2 2 3 3 3 3 2 3 4 4 6 9 10 11 11
3 4 4 4 4 4 6 7 6 5 5 5 4 4 4 3 4 4 4 4 4 4 3 3 3 3 3 3 2 3 3 3 3 2 2 3 3 3 4 5 8 11 11
3 4 3 2 2 3 6 7 8 5 5 4 4 3 5 4 3 4 5 5 5 5 5 3 3 4 4 3 3 3 3 3 4 3 2 3 2 3 3 4 8 10 11
3 3 3 3 1 3 5 6 8 5 4 4 3 2 2 3 4 5 5 4 3 3 4 4 3 4 4 3 3 4 4 4 4 3 2 2 2 2 3 2 6 8 9
3 3 2 3 2 2 4 5 7 5 4 5 3 3 2 3 5 6 4 4 4 4 4 4 5 6 6 7 5 3 3 2 3 3 1 1 2 2 2 2 2 6 7
3 2 2 2 2 2 3 4 5 4 4 4 3 2 3 3 4 5 3 3 4 4 5 5 4 5 5 5 5 3 3 2 2 2 2 1 2 1 2 2 1 1 3
Wind_Direction
222 240 248 235 263 258 234 238 249 249 251 251 250 248 246 248 247 237 206 202 202 205 207 211 219 227 233 232 230 230 229 225 223 220 218 225 227 223 219 217 219 218 218
225 247 252 237 260 273 275 264 267 268 261 260 255 254 245 247 243 239 232 213 213 210 211 214 222 226 231 232 230 228 227 226 225 221 218 221 228 227 221 217 218 219 220
234 263 267 244 262 276 274 268 275 275 267 261 248 248 249 242 242 235 238 230 217 216 215 214 219 222 228 231 230 229 229 226 225 222 219 220 222 222 223 221 220 221 223
230 251 265 267 281 277 270 267 262 265 271 277 271 259 250 239 234 233 229 230 225 221 215 213 216 220 224 228 230 230 228 226 225 224 221 221 222 221 221 221 221 221 223
241 250 266 265 270 273 273 276 278 285 285 281 274 254 247 250 240 238 225 228 230 224 212 210 216 220 223 227 228 229 228 229 228 228 227 224 223 224 223 221 223 223 223
263 255 259 251 261 277 276 280 292 283 275 275 277 279 268 254 246 238 232 231 225 228 221 214 211 220 222 225 226 228 230 232 232 233 232 229 226 226 226 222 222 224 225
279 274 279 288 266 264 279 288 284 275 271 263 271 282 269 254 246 238 231 231 225 226 226 214 208 214 218 221 222 227 232 234 235 236 236 233 229 228 229 224 223 225 227
287 277 279 270 274 283 285 280 280 282 275 258 256 281 286 268 255 246 226 223 229 228 229 229 212 212 221 214 212 221 230 236 237 238 238 235 232 231 232 229 228 228 228
267 273 280 273 271 270 268 270 269 269 280 283 254 247 267 270 289 248 240 235 221 223 233 233 227 217 218 218 212 213 219 228 235 239 239 238 237 235 236 235 233 232 232
276 276 272 272 269 268 269 273 275 274 273 279 271 245 238 258 265 280 256 238 228 227 229 241 244 232 223 216 207 199 208 216 227 236 240 241 240 241 240 241 239 238 237
280 276 276 279 277 272 269 274 289 281 273 274 279 273 258 249 245 252 272 270 254 237 224 223 227 226 226 218 204 202 201 206 214 227 236 241 242 244 244 245 244 243 240
275 276 289 299 293 282 282 285 282 278 276 281 286 283 277 272 264 249 257 264 262 258 245 229 224 221 219 213 214 204 201 203 209 220 227 232 237 242 246 247 247 245 242
302 301 307 303 303 299 293 291 285 279 275 274 271 272 273 267 266 263 268 276 280 275 262 243 225 216 220 195 193 201 205 199 205 215 222 227 232 236 241 246 243 244 244
312 319 312 306 302 298 300 302 290 280 276 273 272 266 270 269 271 269 265 278 287 283 272 268 248 222 218 202 185 197 201 199 205 211 216 220 226 230 236 241 239 240 243
315 321 314 303 299 300 297 294 286 286 289 281 273 266 264 272 270 271 268 260 266 281 281 276 273 246 226 201 184 198 195 209 212 215 215 219 224 228 232 234 233 235 237
322 321 314 307 301 295 290 282 285 285 284 281 270 269 269 275 282 281 272 271 268 269 276 278 276 273 268 269 209 215 217 206 214 212 213 217 221 225 228 229 231 233 233
322 316 309 300 300 302 295 291 284 284 284 284 284 279 277 279 283 288 284 277 271 267 272 279 277 290 269 259 252 235 227 215 210 211 214 215 217 220 222 223 225 228 230
321 317 310 305 306 309 316 311 303 299 291 284 283 286 287 283 278 283 286 281 275 266 261 272 277 280 278 262 247 242 245 239 226 220 216 215 214 217 219 221 222 224 226
327 323 321 322 323 330 341 329 319 312 306 305 302 303 302 297 294 291 283 282 283 283 271 272 279 275 276 274 268 266 257 251 251 234 220 214 214 215 218 220 220 221 222
329 330 336 336 340 351 355 347 339 324 323 320 324 323 315 310 304 297 289 285 285 282 276 270 273 276 275 273 263 270 271 253 258 260 233 216 215 218 219 220 219 217 219
336 340 340 341 347 5 4 358 338 330 327 322 321 316 306 304 309 303 309 312 307 298 294 292 291 294 289 298 287 271 272 267 257 253 246 224 210 218 218 222 223 220 218
336 337 337 345 1 1 358 356 342 322 321 315 316 311 300 300 315 303 302 297 290 284 287 287 291 295 297 293 295 292 287 288 284 271 264 259 229 226 220 212 213 211 215
334 326 325 350 8 6 353 347 337 320 307 308 305 305 310 327 345 324 302 283 280 279 270 278 286 291 298 302 300 296 292 285 277 271 258 266 253 246 243 232 205 210 214
316 312 322 325 347 1 352 345 336 311 301 299 300 309 331 349 350 333 313 307 295 287 268 257 263 274 286 289 280 276 273 275 276 283 279 269 273 265 264 247 214 213 215
308 311 318 317 336 358 345 342 338 316 313 309 316 351 359 1 347 337 317 311 310 304 290 283 268 268 270 270 272 286 284 282 292 294 299 265 282 289 275 261 229 219 224
301 310 318 322 337 348 339 336 338 324 323 327 329 340 25 6 352 349 329 317 312 313 314 299 280 267 267 267 257 242 262 273 292 296 308 298 288 307 295 270 269 237 228